Weather in Tarashcha

Ukraine / Kyiv Region     49˚33′39″N   30˚30′22″E
temp.,
°C
wind,
m/s
gust,
m/s
humid.,
%
clouds,
%
prec.,
mm/h
press.,
hPa
HPBL,
m
3 december, thu
thu323:00se3597100 0.3 1028337
02:00−1˚se349486 0.4 1027139
05:00−2˚se359756 0.0 1027168
08:00se369269 0.0 1026437
11:00+1˚ese3592100 0.0 1026309
14:00+1˚ese4691100 0.0 1025344
17:00+1˚ese5894100 0.0 1024344
20:00+2˚se5996100 0.1 1023347
4 december, fri
fri423:00+2˚se5996100 0.0 1023344
02:00+3˚se51196100 0.0 1023485
05:00+3˚se5109599 0.0 1021439
08:00+4˚se61194100 0.1 1022558
11:00+5˚sse61188100 0.0 1023675
14:00+5˚se61088100 0.0 1022486
17:00+4˚se71191100 0.0 1022462
20:00+3˚se71192100 0.0 1023564
5 december, sat
sat523:00+4˚sse71189100 0.0 1024639
02:00+4˚se61187100 0.0 1025571
05:00+3˚se61090100 0.0 1025586
08:00+3˚se61089100 0.0 1026629
11:00+3˚se71182100 0.0 1027602
14:00+3˚ese697885 0.0 1027502
17:00+1˚ese6118412 0.0 1028439
20:00se612826 0.0 1029503
6 december, sun
sun623:00se612830 0.0 1029512
02:00−1˚ese611790 0.0 1030449
05:00−2˚ese511660 0.0 1030453
08:00−2˚ese610640 0.0 1030432
11:00ese610470 0.0 1031476
14:00+1˚ese610460 0.0 1029503
17:00−2˚ese612520 0.0 1030450
20:00−2˚ese713520 0.0 1030500
7 december, mon
mon723:00−3˚ese613490 0.0 1030550
02:00−3˚ese612500 0.0 1030554
05:00−4˚ese712500 0.0 1030541
08:00−4˚ese713480 0.0 1030507
11:00−2˚ese712460 0.0 1029549
14:00−1˚ese712460 0.0 1028636
17:00−2˚ese614530 0.0 1028577
20:00−3˚ese614560 0.0 1028601